Station 46086 (LLNR 81) - SAN CLEMENTE BASIN - 27NM SE Of San Clemente Is, CA Image indicating link to RSS feed of recent meteorological observations for station 46086


Conditions at 46086 as of
(4:10 pm PDT)
2310 GMT on 07/18/2024:
     

Click on the graph icon in the table below to see a time series plot of the last five days of that observation.

5-day plot - Wind Direction Wind Direction (WDIR):WNW ( 290 deg true )
5-day plot - Wind Speed Wind Speed (WSPD): 9.7 kts
5-day plot - Wind Gust Wind Gust (GST): 13.6 kts
5-day plot - Atmospheric Pressure Atmospheric Pressure (PRES):29.95 in
5-day plot - Air Temperature Air Temperature (ATMP): 63.9 °F
5-day plot - Water Temperature Water Temperature (WTMP): 67.3 °F
5-day plot - Dew Point Dew Point (DEWP): 60.1 °F
5-day plot - Wind Speed at 10 Meters Wind Speed at 10 meters (WSPD10M): 11.7 kts
5-day plot - Wind Speed at 20 Meters Wind Speed at 20 meters (WSPD20M): 11.7 kts
5-day plot -  Wind Speed, Wind Gust and Atmospheric Pressure Combined plot of Wind Speed, Gust, and Air Pressure
Supplemental Measurements
Highest 1-minute Wind Speed
Time (PDT)5-day plot - 1-Minute Wind Speed WSPD 5-day plot - 1-Minute Wind Direction WDIR
4:04 pm 11.7 kts-
Previous observations
TIME
(PDT)
5-day plot - Wind Direction
WDIR
 
5-day plot - Wind Speed
WSPD
kts
5-day plot - Wind Gust
GST
kts
5-day plot - Wave Height
WVHT
ft
5-day plot - Dominant Wave Period
DPD
sec
5-day plot - Average Wave Period
APD
sec
5-day plot - Mean Wave Direction
MWD
 
5-day plot - Atmospheric Pressure
PRES
in
5-day plot - Pressure Tendency
PTDY
in
5-day plot - Air Temperature
ATMP
°F
5-day plot - Water Temperature
WTMP
°F
5-day plot - Dew Point
DEWP
°F
5-day plot - Salinity
SAL
psu
5-day plot - Visibility
VIS
nmi
5-day plot - Tide (above MLLW)
TIDE
ft
2024-07-18 04:00 pm W 11.7 15.5----29.94-0.04 63.9- 60.1---
2024-07-18 03:50 pm W 13.6 15.5 4.6 166.4 S29.93- 63.9 67.3 60.3---
2024-07-18 03:40 pm W 11.7 15.5----29.94- 64.0 67.3 60.4---
2024-07-18 03:30 pm W 11.7 15.5----29.95- 63.9 67.3 60.3---
2024-07-18 03:20 pm W 13.6 15.5 4.9 166.9SSW29.95- 63.7 67.3 60.1---
2024-07-18 03:10 pm W 13.6 21.4 4.9-6.9SSW29.95- 63.7 67.3 60.1---
2024-07-18 03:00 pm W 15.5 19.4----29.94-0.04 63.7 67.3 60.1---
2024-07-18 02:50 pm W 13.6 17.5 4.3 166.7SSW29.95- 63.5 67.3 59.5---
2024-07-18 02:40 pm W 13.6 17.5----29.95- 63.7 67.3 59.9---
2024-07-18 02:30 pm W 13.6 15.5----29.95- 63.7 67.3 59.9---
2024-07-18 02:20 pm W 13.6 15.5 4.6 166.9SSW29.96- 63.7 67.3 59.7---
2024-07-18 02:10 pm W 9.7 13.6 4.6-6.9SSW29.96- 63.7 67.3 59.9---
2024-07-18 02:00 pm W 11.7 13.6----29.97-0.01 63.5 67.3 59.7---
2024-07-18 01:50 pm W 11.7 15.5 4.3 167.1SSW29.96- 63.7 67.3 59.9---
2024-07-18 01:40 pm W 11.7 13.6 4.3-7.1SSW29.96- 63.9 67.3 60.1---
2024-07-18 01:30 pm W 9.7 11.7----29.97- 63.9 67.3 60.1---
2024-07-18 01:20 pm W 9.7 11.7 4.9 167.7SSW29.97- 63.5 67.1 59.5---
2024-07-18 01:10 pm W 7.8 11.7----29.98- 63.5 67.3 59.4---
2024-07-18 01:00 pm W 7.8 9.7----29.98+0.00 63.3 67.3 59.2---
2024-07-18 12:50 pm W 9.7 13.6 4.6 167.7SSW29.98- 63.3 67.3 59.4---
2024-07-18 12:40 pm W 9.7 13.6----29.98- 63.5 67.1 59.7---
2024-07-18 12:30 pm W 9.7 11.7----29.97- 63.5 67.1 59.7---
2024-07-18 12:20 pm W 9.7 11.7 4.6 167.3 S29.98- 63.5 67.1 59.7---
2024-07-18 12:10 pm W 7.8 11.7 4.6-7.3 S29.98- 63.3 67.1 59.4---
2024-07-18 12:00 pm W 7.8 9.7----29.98+0.02 63.3 67.1 59.4---
2024-07-18 11:50 am W 5.8 7.8 4.3 167.1SSW29.98- 63.1 67.1 59.0---
2024-07-18 11:40 am W 7.8 9.7----29.98- 63.0 67.1 59.0---
2024-07-18 11:30 am W 7.8 11.7----29.98- 63.0- 58.8---
2024-07-18 11:20 am W 7.8 9.7 3.9 166.9SSW29.97- 63.1 67.1 59.2---
2024-07-18 11:10 am W 7.8 9.7 3.9-6.9SSW29.98- 63.0 67.1 59.0---
2024-07-18 11:00 am W 5.8 11.7----29.98+0.02 63.1 67.1 59.2---
2024-07-18 10:50 am W 3.9 5.8 4.6 167.6SSW29.97- 63.0 66.9 58.8---
2024-07-18 10:40 amWSW 3.9 7.8 4.6-7.6SSW29.98- 62.8 66.9 58.6---
2024-07-18 10:30 amWSW 5.8 7.8----29.98- 62.8 66.9 58.6---
2024-07-18 10:20 am W 5.8 7.8 4.3 166.8SSW29.97- 62.8 66.9 58.6---
2024-07-18 10:10 am W 3.9 7.8----29.97- 63.0 66.9 58.8---
2024-07-18 10:00 amWNW 3.9 5.8----29.97+0.04 62.8 66.9 58.6---
2024-07-18 09:50 am W 3.9 5.8 4.9 168.0 S29.97- 62.6 66.7 58.6---
2024-07-18 09:40 am W 5.8 7.8----29.97- 62.4 66.7 58.5---
2024-07-18 09:30 am W 5.8 7.8----29.96- 62.6 66.7 58.6---
2024-07-18 09:20 amWNW 3.9 5.8 4.6 167.5SSW29.96- 62.4 66.6 58.5---
2024-07-18 09:10 am W 3.9 5.8 4.6-7.5SSW29.96- 62.4 66.6 58.8---
2024-07-18 09:00 am W 3.9 5.8----29.96+0.04 62.2 66.6 58.6---
2024-07-18 08:50 am W 3.9 7.8 4.6 166.9 S29.96- 62.4 66.6 58.8---
2024-07-18 08:40 amWNW 1.9 3.9----29.96- 62.2 66.6 58.6---
2024-07-18 08:30 am W 3.9 5.8----29.96- 62.2 66.6 59.0---
2024-07-18 08:20 am W 5.8 7.8 4.3 167.1 S29.96- 62.1 66.6 59.0---
2024-07-18 08:10 am W 3.9 5.8 4.3-7.1 S29.96- 62.1 66.6 59.0---
2024-07-18 08:00 am W 3.9 7.8----29.95+0.04 62.1 66.6 59.0---
2024-07-18 07:50 am W 3.9 5.8 4.3 166.9SSW29.95- 61.9 66.6 58.8---
2024-07-18 07:40 am W 3.9 7.8----29.95- 62.1 66.6 59.0---
2024-07-18 07:30 am W 3.9 5.8----29.94- 62.1 66.6 59.2---
2024-07-18 07:20 am W 5.8 7.8 4.6 166.8 S29.95- 62.1 66.6 59.0---
2024-07-18 07:10 am W 5.8 7.8 4.6-6.8 S29.94- 62.1 66.6 59.0---
2024-07-18 07:00 am W 3.9 7.8----29.94+0.03 62.1 66.6 59.2---
2024-07-18 06:50 am W 5.8 9.7 4.9 167.3SSW29.94- 62.1 66.6 59.4---
2024-07-18 06:40 am W 7.8 9.7----29.93- 62.1 66.6 59.5---
2024-07-18 06:30 am W 7.8 9.7----29.93- 62.2 66.4 59.7---
2024-07-18 06:20 am W 7.8 9.7 4.3 166.6 S29.92- 62.2 66.4 59.7---
2024-07-18 06:10 am W 7.8 9.7 4.3-6.6 S29.92- 62.2 66.4 59.7---
2024-07-18 06:00 am W 7.8 9.7----29.92+0.00 62.4 66.4 59.9---
2024-07-18 05:50 am W 7.8 9.7 4.3 166.3SSW29.92- 62.4 66.4 59.9---
2024-07-18 05:40 amWNW 7.8 9.7----29.92- 62.6 66.4 60.1---
2024-07-18 05:30 amWNW 7.8 9.7----29.92- 62.8 66.4 60.3---
2024-07-18 05:20 amWNW 7.8 9.7 5.2 167.7 S29.92- 63.0 66.4 60.4---
2024-07-18 05:10 amWNW 7.8 7.8----29.92- 62.8 66.4 60.3---
2024-07-18 05:00 am W 7.8 9.7----29.91-0.01 62.8 66.6 60.1---
2024-07-18 04:50 am W 9.7 11.7 4.6 166.9SSW29.91- 62.8 66.6 60.1---
2024-07-18 04:40 am W 9.7 11.7----29.91- 62.8 66.6 60.1---
2024-07-18 04:30 am W 7.8 9.7----29.91- 62.8 66.4 60.1---
2024-07-18 04:20 am W 7.8 9.7 4.6 167.1 S29.91- 62.8 66.6 60.1---
2024-07-18 04:10 amWNW 9.7 11.7 4.6-7.1 S29.91- 63.0 66.6 60.4---
2024-07-18 04:00 amWNW 7.8 9.7----29.91-0.01 62.8 66.6 60.3---
2024-07-18 03:50 amWNW 7.8 9.7 4.3 166.6SSW29.91- 62.8 66.6 60.3---
2024-07-18 03:40 am W 7.8 11.7 4.3-6.6SSW29.91- 62.8 66.6 60.3---
2024-07-18 03:30 amWNW 7.8 11.7----29.91- 62.8 66.4 60.3---
2024-07-18 03:20 amWNW 7.8 11.7 4.6 167.2 S29.91- 62.8 66.4 60.1---
2024-07-18 03:10 amWNW 7.8 9.7 4.6-7.2 S29.92- 62.6 66.4 59.9---
2024-07-18 03:00 amWNW 5.8 9.7----29.92-0.02 62.4 66.4 59.5---
2024-07-18 02:50 am NW 7.8 9.7 4.6 167.1SSW29.92- 62.4 66.6 59.7---
2024-07-18 02:40 amWNW 7.8 9.7----29.92- 62.4 66.6 59.7---
2024-07-18 02:30 amWNW 7.8 9.7----29.92- 62.4 66.6 59.7---
2024-07-18 02:20 amWNW 7.8 11.7 4.3 166.7SSW29.92- 62.6 66.6 60.1---
2024-07-18 02:10 amWNW 5.8 9.7 4.3-6.7SSW29.92- 62.4 66.6 59.9---
2024-07-18 02:00 amWNW 7.8 11.7----29.93-0.01 62.6 66.6 60.1---
2024-07-18 01:50 amWNW 9.7 11.7 4.3 166.9SSW29.93- 62.6 66.6 59.9---
2024-07-18 01:40 am W 9.7 11.7----29.92- 62.6 66.6 59.7---
2024-07-18 01:30 amWNW 7.8 11.7----29.92- 62.6 66.6 59.5---
2024-07-18 01:20 amWNW 7.8 11.7 4.6 167.0 S29.92- 63.1 66.6 60.3---
2024-07-18 01:10 amWNW 7.8 9.7 4.6-7.0 S29.93- 62.8 66.6 59.7---
2024-07-18 01:00 amWNW 7.8 11.7----29.93-0.01 62.8 66.6 59.7---
2024-07-18 12:50 am W 7.8 11.7 4.3 166.8 S29.93- 63.0 66.6 59.9---
2024-07-18 12:40 amWNW 5.8 9.7 4.3-6.8 S29.93- 63.0 66.6 59.9---
2024-07-18 12:30 amWNW 7.8 9.7----29.94- 63.1 66.6 60.1---
2024-07-18 12:20 am NW 7.8 11.7 4.3 166.2 SW29.94- 63.3 66.6 60.3---
2024-07-18 12:10 amWNW 7.8 11.7 4.3-6.2 SW29.94- 63.1 66.6 59.9---
2024-07-18 12:00 amWNW 7.8 11.7----29.94+0.02 63.3 66.6 60.1---
2024-07-17 11:50 pmWNW 7.8 11.7 4.6 166.6SSW29.94- 63.5 66.6 60.4---
2024-07-17 11:40 pmWNW 7.8 9.7----29.94- 63.3 66.6 60.1---
2024-07-17 11:30 pmWNW 7.8 11.7----29.94- 63.3 66.7 60.1---
2024-07-17 11:20 pmWNW 7.8 11.7 4.6 166.9SSW29.94- 63.5 66.6 60.3---
2024-07-17 11:10 pmWNW 7.8 9.7 4.6-6.9SSW29.94- 63.7 66.6 60.6---
2024-07-17 11:00 pmWNW 7.8 11.7----29.94+0.03 63.5 66.6 60.3---
2024-07-17 10:50 pmWNW 7.8 11.7 4.6 166.7SSW29.94- 63.7 66.4 60.4---
2024-07-17 10:40 pmWNW 7.8 11.7----29.94- 63.7 66.4 60.4---
2024-07-17 10:30 pm W 9.7 11.7----29.94- 63.7 66.4 60.4---
2024-07-17 10:20 pmWNW 9.7 13.6 4.9 167.0SSW29.94- 63.9 66.4 60.6---
2024-07-17 10:10 pm W 7.8 11.7 4.9-7.0SSW29.94- 63.9 66.4 60.6---
2024-07-17 10:00 pmWNW 9.7 11.7----29.94+0.03 63.9 66.4 60.6---
2024-07-17 09:50 pm W 9.7 13.6 4.3 166.1 SW29.93- 63.7 66.4 60.4---
2024-07-17 09:40 pm W 9.7 13.6----29.93- 63.7 66.4 60.4---
2024-07-17 09:30 pm W 11.7 13.6----29.92- 63.7 66.4 60.4---
2024-07-17 09:20 pm W 9.7 13.6 4.3 166.4SSW29.93- 63.7 66.4 60.4---
2024-07-17 09:10 pm W 9.7 13.6----29.93- 63.7 66.4 60.6---
2024-07-17 09:00 pm W 11.7 13.6----29.92+0.03 63.7 66.4 60.4---
2024-07-17 08:50 pm W 9.7 11.7 4.6 166.4 SW29.93- 63.7 66.4 60.4---
2024-07-17 08:40 pm W 9.7 11.7----29.93- 63.7 66.4 60.6---
2024-07-17 08:30 pm W 9.7 13.6----29.92- 63.7 66.4 60.6---
2024-07-17 08:20 pm W 9.7 11.7 4.9 166.9SSW29.92- 63.5 66.4 60.4---
2024-07-17 08:10 pmWNW 9.7 13.6----29.91- 63.7 66.4 60.6---
2024-07-17 08:00 pm W 9.7 11.7----29.91+0.02 63.7 66.4 60.8---
2024-07-17 07:50 pmWNW 9.7 13.6 4.9 176.8SSW29.91- 63.5 66.4 60.4---
2024-07-17 07:40 pmWNW 9.7 13.6----29.91- 63.7 66.4 60.6---
2024-07-17 07:30 pmWNW 7.8 11.7----29.90- 63.7 66.4 60.8---
2024-07-17 07:20 pmWNW 9.7 11.7 4.9 166.8 SW29.90- 63.7 66.4 60.6---
2024-07-17 07:10 pm W 7.8 9.7 4.9-6.8 SW29.90- 63.7 66.4 60.6---
2024-07-17 07:00 pmWNW 7.8 11.7----29.91+0.00 63.7 66.4 60.6---
2024-07-17 06:50 pmWNW 7.8 11.7 4.9 176.7SSW29.90- 63.7 66.4 60.8---
2024-07-17 06:40 pmWNW 9.7 13.6 4.9-6.7SSW29.90- 63.9 66.4 61.0---
2024-07-17 06:30 pmWNW 9.7 11.7----29.90- 63.9 66.4 61.0---
2024-07-17 06:20 pm W 11.7 13.6 4.6 166.2SSW29.89- 64.0 66.4 61.0---
2024-07-17 06:10 pmWNW 9.7 13.6 4.6-6.2SSW29.89- 64.0 66.4 61.0---
2024-07-17 06:00 pmWNW 9.7 11.7----29.89-0.03 64.4 66.4 61.3---
2024-07-17 05:50 pmWNW 9.7 13.6 4.3 175.9SSW29.89- 64.4 66.4 61.2---
2024-07-17 05:40 pmWNW 9.7 11.7----29.89- 64.2 66.4 61.0---
2024-07-17 05:30 pmWNW 9.7 11.7----29.89- 64.0 66.4 60.6---
2024-07-17 05:20 pmWNW 11.7 13.6 4.3 175.8WSW29.89- 64.0 66.2 60.6---
2024-07-17 05:10 pm W 11.7 13.6 4.3-5.8WSW29.89- 63.9 66.2 60.3---
2024-07-17 05:00 pm W 11.7 13.6----29.89-0.04 63.9 66.2 60.1---
2024-07-17 04:50 pm W 11.7 15.5 4.6 176.2 SW29.90- 63.9 66.2 59.9---
2024-07-17 04:40 pm W 11.7 13.6----29.90- 63.9 66.2 59.9---
2024-07-17 04:30 pm W 11.7 13.6----29.90- 63.9 66.2 59.9---
2024-07-17 04:20 pm W 11.7 15.5 4.9 176.4SSW29.90- 63.7 66.0 59.7---
2024-07-17 04:10 pmWNW 11.7 15.5 4.9-6.4SSW29.91- 63.7 66.2 59.7---
2024-07-17 04:00 pmWNW 11.7 13.6----29.91-0.05 63.9 66.2 59.9---
2024-07-17 03:50 pmWNW 11.7 13.6 5.2 176.5 SW29.91- 63.7 66.2 59.7---

Detailed Wave Summary
for 46086 as of (3:40 pm PDT)
2240 GMT on 07/18/2024:

These wave data are displayed in rounded times.

     

Click on the graph icon in the table below to see a time series plot of the last five days of that observation.

5-day plot - Significant Wave Height Significant Wave Height (WVHT): 4.6 ft
5-day plot - Swell Height Swell Height (SwH): 3.9 ft
5-day plot - Swell Period Swell Period (SwP): 16.0 sec
5-day plot - Swell Direction Swell Direction (SwD): S
5-day plot - Wind Wave Height Wind Wave Height (WWH): 2.3 ft
5-day plot - Wind Wave Period Wind Wave Period (WWP): 4.5 sec
5-day plot - Wind Wave Direction Wind Wave Direction (WWD):WNW
5-day plot - Wave Steepness Wave Steepness (STEEPNESS): SWELL
5-day plot - Average Wave Period Average Wave Period (APD): 6.4 sec
Previous observations
TIME
(PDT)
5-day plot - Wave Height
WVHT
ft
5-day plot - Swell Height
SwH
ft
5-day plot - Swell Period
SwP
sec
5-day plot - Swell Direction
SwD
 
5-day plot - Wind Wave Height
WWH
ft
5-day plot - Wind Wave Period
WWP
sec
5-day plot - Wind Wave Direction
WWD
 
5-day plot - Wave Steepness
STEEPNESS
 
5-day plot - Average Wave Period
APD
sec
2024-07-18 03:10 pm 4.9 4.3 16.0SSW 2.3 6.2 WNW SWELL 6.9
2024-07-18 02:40 pm 4.3 3.6 16.0SSW 2.6 5.9 WNW SWELL 6.7
2024-07-18 02:10 pm 4.6 4.3 16.0SSW 1.6 4.8 WNW SWELL 6.9
2024-07-18 01:40 pm 4.3 3.9 16.0SSW 1.6 4.8 WNW SWELL 7.1
2024-07-18 01:10 pm 4.9 4.6 16.0SSW 1.3 3.7 W SWELL 7.7
2024-07-18 12:40 pm 4.6 4.6 16.0SSW 1.3 3.6 W SWELL 7.7
2024-07-18 12:10 pm 4.6 4.6 16.0 S 1.0 4.0 W SWELL 7.3
2024-07-18 11:40 am 4.3 4.3 16.0SSW 1.0 4.0 W SWELL 7.1
2024-07-18 11:10 am 3.9 3.9 16.0SSW 1.0 4.0 W SWELL 6.9
2024-07-18 10:40 am 4.6 4.6 16.0SSW 1.0 3.6 W SWELL 7.6
2024-07-18 10:10 am 4.3 3.9 16.0SSW 1.0 3.8 WNW SWELL 6.8
2024-07-18 09:40 am 4.9 4.9 16.0 S 1.0 3.3 W SWELL 8.0
2024-07-18 09:10 am 4.6 4.6 16.0SSW 1.0 3.1 W SWELL 7.5
2024-07-18 08:40 am 4.6 4.3 16.0 S 1.0 3.6 W SWELL 6.9
2024-07-18 08:10 am 4.3 4.3 16.0 S 1.3 3.7 WNW SWELL 7.1
2024-07-18 07:40 am 4.3 4.3 16.0SSW 1.0 3.7 WNW SWELL 6.9
2024-07-18 07:10 am 4.6 4.3 16.0 S 1.0 3.3 W SWELL 6.8
2024-07-18 06:40 am 4.9 4.6 16.0SSW 1.3 3.8 WNW SWELL 7.3
2024-07-18 06:10 am 4.3 3.9 16.0 S 1.3 3.3 W SWELL 6.6
2024-07-18 05:40 am 4.3 3.9 16.0SSW 1.3 3.8 WNW SWELL 6.3
2024-07-18 05:10 am 5.2 5.2 16.0 S 1.3 3.8 W SWELL 7.7
2024-07-18 04:40 am 4.6 4.3 16.0SSW 1.3 4.0 W SWELL 6.9
2024-07-18 04:10 am 4.6 4.6 16.0 S 1.3 4.0 WNW SWELL 7.1
2024-07-18 03:40 am 4.3 3.9 16.0SSW 1.3 4.2 WNW SWELL 6.6
2024-07-18 03:10 am 4.6 4.6 16.0 S 1.3 3.7 WNW SWELL 7.2
2024-07-18 02:40 am 4.6 4.6 16.0SSW 1.3 4.0 WNW SWELL 7.1
2024-07-18 02:10 am 4.3 4.3 16.0SSW 1.3 3.4 WNW SWELL 6.7
2024-07-18 01:40 am 4.3 4.3 16.0SSW 1.3 4.0 WNW SWELL 6.9
2024-07-18 01:10 am 4.6 4.3 16.0 S 1.3 4.0 NW SWELL 7.0
2024-07-18 12:40 am 4.3 4.3 16.0 S 1.3 3.8 WNW SWELL 6.8
2024-07-18 12:10 am 4.3 3.9 16.0 SW 1.3 4.0 NW SWELL 6.2
2024-07-17 11:40 pm 4.6 4.3 16.0SSW 1.3 3.8 WNW SWELL 6.6
2024-07-17 11:10 pm 4.6 4.6 16.0SSW 1.3 3.4 WNW SWELL 6.9
2024-07-17 10:40 pm 4.6 4.3 16.0SSW 1.6 4.0 NW SWELL 6.7
2024-07-17 10:10 pm 4.9 4.9 16.0SSW 1.6 4.2 WNW SWELL 7.0
2024-07-17 09:40 pm 4.3 3.6 16.0 SW 2.0 4.8 WNW SWELL 6.1
2024-07-17 09:10 pm 4.3 3.9 16.0SSW 2.0 4.8 WNW SWELL 6.4
2024-07-17 08:40 pm 4.6 4.3 16.0 SW 1.6 4.2 NW SWELL 6.4
2024-07-17 08:10 pm 4.9 4.6 16.0SSW 2.0 4.5 WNW SWELL 6.9
2024-07-17 07:40 pm 4.9 4.6 17.4SSW 1.6 3.8 NW SWELL 6.8
2024-07-17 07:10 pm 4.9 4.9 16.0 SW 1.3 3.3 WNW SWELL 6.8
2024-07-17 06:40 pm 4.9 4.6 17.4SSW 2.3 5.0 WNW SWELL 6.7
2024-07-17 06:10 pm 4.6 3.9 16.0SSW 2.3 4.3 WNW SWELL 6.2
2024-07-17 05:40 pm 4.3 3.9 17.4SSW 2.0 4.5 WNW SWELL 5.9
2024-07-17 05:10 pm 4.3 3.6 17.4WSW 2.3 5.0 WNW SWELL 5.8
2024-07-17 04:40 pm 4.6 3.9 17.4 SW 2.6 5.3 WNW SWELL 6.2
2024-07-17 04:10 pm 4.9 4.3 17.4SSW 2.3 4.5 WNW SWELL 6.4

Plot of wave energy versus frequency (and period)